Weather past 2 weeks in Cayenne, French Guiana

Now
79 °F

Passing clouds.


Feels Like: 82 °F
Forecast: 78 / 85 °F
Wind: 6 mph from East

Location: Cayenne / Rochambeau

Current Time: Apr 26, 2015 at 6:21:43 AM

Latest Report: Apr 26, 2015 at 6:00 AM


Visibility: N/A

Pressure: 29.89 "Hg

Humidity: 89%

Dew point: 75 °F

Location of CayenneLocation

Historic Weather in Cayenne — Graph

°F

Cayenne temperature yesterday

Maximum temperature yesterday: 88 °F (at 3:00 PM)
Minimum temperature yesterday: 77 °F (at 3:00 AM)
Average temperature yesterday: 82 °F

Past Weeks' High & Low Weather Summary

 TemperatureHumidityPressure
High88 °F (Apr 23, 2:30 PM)100% (Apr 13, 5:00 AM)30.01 "Hg (Apr 13, 5:00 AM)
Low75 °F (Apr 13, 4:30 AM)62% (Apr 12, 12:30 PM)29.83 "Hg (Apr 16, 3:30 PM)
Average80 °F84%29.90 "Hg
* Reported Apr 11 5:00 AM — Apr 26 5:00 AM, Cayenne, Weather by CustomWeather, © 2015

Note: Actual official high and low records may vary slightly from our data, if they occured in-between our weather recording intervals... More about our weather records

Advertising

Cayenne weather history for previous 24 hours

 ConditionsComfort  
Time TempWeatherWind HumidityBarometerVisibility
5:00 AM
Sun, Apr 26
79 °FPartly cloudy.5 mph89%29.89 "HgN/A
4:30 AM79 °FPassing clouds.5 mph89%29.86 "HgN/A
4:00 AM79 °FMostly cloudy.7 mph89%29.86 "HgN/A
3:30 AM79 °FMostly cloudy.8 mph89%29.86 "HgN/A
3:00 AM79 °FPartly cloudy.6 mph89%29.86 "HgN/A
2:30 AM79 °FPartly cloudy.6 mph89%29.86 "HgN/A
2:00 AM79 °FPartly cloudy.6 mph89%29.89 "HgN/A
1:30 AM79 °FPartly cloudy.5 mph89%29.89 "HgN/A
1:00 AM79 °FPartly cloudy.6 mph89%29.89 "HgN/A
12:30 AM81 °FLight rain. Partly cloudy.6 mph84%29.92 "HgN/A
12:00 AM81 °FPassing clouds.8 mph84%29.92 "HgN/A
11:30 PM
Sat, Apr 25
81 °FPartly cloudy.6 mph84%29.92 "HgN/A
11:00 PM81 °FPartly cloudy.8 mph84%29.92 "HgN/A
10:30 PM81 °FPartly cloudy.10 mph84%29.92 "HgN/A
10:00 PM81 °FPartly cloudy.9 mph84%29.92 "HgN/A
9:30 PM81 °FPassing clouds.9 mph84%29.92 "HgN/A
9:00 PM81 °FPartly cloudy.10 mph84%29.92 "HgN/A
8:30 PM81 °FPartly cloudy.8 mph84%29.89 "HgN/A
8:00 PM81 °FPartly cloudy.7 mph84%29.89 "HgN/A
7:30 PM81 °FPassing clouds.8 mph84%29.89 "HgN/A
7:00 PM81 °FPassing clouds.9 mph84%29.89 "HgN/A
6:00 PM82 °FBroken clouds.12 mph79%29.89 "HgN/A
5:30 PM84 °FScattered clouds.14 mph74%29.89 "HgN/A
5:00 PM84 °FScattered clouds.13 mph74%29.89 "HgN/A
4:30 PM84 °FPassing clouds.14 mph74%29.89 "HgN/A
4:00 PM86 °FPassing clouds.15 mph70%29.89 "HgN/A
3:30 PM86 °FPassing clouds.17 mph70%29.89 "HgN/A
3:00 PM88 °FPartly sunny.15 mph66%29.89 "HgN/A
2:30 PM86 °FPartly sunny.18 mph70%29.92 "HgN/A
2:00 PM84 °FBroken clouds.16 mph74%29.92 "HgN/A
1:30 PM86 °FPartly sunny.13 mph70%29.95 "HgN/A
1:00 PM86 °FBroken clouds.15 mph70%29.95 "HgN/A
12:30 PM86 °FBroken clouds.14 mph70%29.98 "HgN/A
12:00 PM86 °FBroken clouds.14 mph70%29.98 "HgN/A
11:30 AM86 °FBroken clouds.16 mph66%29.98 "HgN/A
11:00 AM86 °FBroken clouds.17 mph70%29.98 "HgN/A
10:30 AM86 °FBroken clouds.14 mph70%29.98 "HgN/A
10:00 AM86 °FBroken clouds.15 mph70%29.98 "HgN/A
9:30 AM86 °FBroken clouds.15 mph70%29.98 "HgN/A
9:00 AM84 °FPartly sunny.14 mph79%29.98 "HgN/A
8:30 AM84 °FPartly sunny.10 mph74%29.98 "HgN/A
8:00 AM82 °FBroken clouds.2 mph84%29.95 "HgN/A
7:30 AM77 °FBroken clouds.1 mph94%29.95 "HgN/A
7:00 AM77 °FBroken clouds.No wind94%29.95 "HgN/A
6:30 AM77 °FBroken clouds.2 mph89%29.92 "HgN/A
6:00 AM77 °FPartly cloudy.No wind89%29.92 "HgN/A
Weather by CustomWeather, © 2015

See weather overviewHow to use our weather pages